| DS18B20 | SHTC3 | ||||||
|---|---|---|---|---|---|---|---|
| ID | Date d/m/Y & Time | data1 สูง | data2 ต่ำ | data3 นอก | temp pcb | hum pcb | Time |
| 1595 | 11/03/2026 22:21:45 | 28.4  | 28.5  | 27.8  | 28.4  | 70.8  | 22:21 |
| 1594 | 11/03/2026 22:17:03 | 28.4  | 28.5  | 27.9  | 28.4  | 70.7  | 22:17 |
| 1593 | 11/03/2026 22:12:21 | 28.4  | 28.6  | 27.9  | 28.4  | 70.8  | 22:12 |
| 1592 | 11/03/2026 22:07:40 | 28.4  | 28.6  | 27.9  | 28.6  | 70.7  | 22:07 |
| 1591 | 11/03/2026 22:02:58 | 28.5  | 28.6  | 27.9  | 28.4  | 70.6  | 22:02 |
| 1590 | 11/03/2026 21:58:16 | 28.5  | 28.6  | 27.9  | 28.6  | 70.8  | 21:58 |
| 1589 | 11/03/2026 21:53:34 | 28.5  | 28.6  | 27.9  | 28.5  | 70.7  | 21:53 |
| 1588 | 11/03/2026 21:48:52 | 28.6  | 28.6  | 27.9  | 28.6  | 70.8  | 21:48 |
| 1587 | 11/03/2026 21:44:11 | 28.6  | 28.7  | 27.9  | 28.7  | 70.7  | 21:44 |
| 1586 | 11/03/2026 21:39:30 | 28.6  | 28.7  | 27.9  | 28.6  | 70.7  | 21:39 |
| 1585 | 11/03/2026 21:34:47 | 28.6  | 28.7  | 27.9  | 28.7  | 70.8  | 21:34 |
| 1584 | 11/03/2026 21:30:06 | 28.6  | 28.7  | 27.9  | 28.6  | 70.7  | 21:30 |
| 1583 | 11/03/2026 21:25:24 | 28.6  | 28.8  | 27.9  | 28.6  | 70.6  | 21:25 |
| 1582 | 11/03/2026 21:20:42 | 28.6  | 28.8  | 27.9  | 28.7  | 70.7  | 21:20 |
| 1581 | 11/03/2026 21:16:01 | 28.7  | 28.8  | 27.9  | 28.6  | 70.6  | 21:16 |
| 1580 | 11/03/2026 21:11:19 | 28.7  | 28.8  | 28.0  | 28.7  | 70.6  | 21:11 |
| 1579 | 11/03/2026 21:06:37 | 28.7  | 28.8  | 27.9  | 28.8  | 70.6  | 21:06 |
| 1578 | 11/03/2026 21:01:55 | 28.7  | 28.8  | 28.0  | 28.7  | 70.7  | 21:01 |
| 1577 | 11/03/2026 20:57:14 | 28.8  | 28.9  | 28.0  | 28.7  | 70.6  | 20:57 |
| 1576 | 11/03/2026 20:52:32 | 28.8  | 28.9  | 28.0  | 28.7  | 70.6  | 20:52 |
| 1575 | 11/03/2026 20:47:50 | 28.8  | 28.9  | 28.0  | 28.7  | 70.6  | 20:47 |
| 1574 | 11/03/2026 20:43:08 | 28.8  | 28.9  | 28.0  | 28.9  | 70.6  | 20:43 |
| 1573 | 11/03/2026 20:38:26 | 28.8  | 28.9  | 28.0  | 28.8  | 70.6  | 20:38 |
| 1572 | 11/03/2026 20:33:44 | 28.9  | 28.9  | 28.0  | 29.0  | 70.6  | 20:33 |